Wind_Speed
25 25 26 26 26 25 25 25 24 23 22 20 18 17 16 15 15 14 13 13 12 11 10 9 9 8 8 8 8 8 8 8 8 8 9 10 10 10 11 11 12 13 15
26 27 28 28 27 27 26 26 26 25 24 22 20 19 18 17 16 16 15 14 13 13 12 11 10 9 9 9 9 9 8 9 9 9 10 10 11 11 11 12 13 14 15
28 28 29 30 29 29 28 28 27 27 26 25 23 21 19 18 18 17 17 16 15 14 13 12 11 11 10 10 10 10 9 9 10 10 10 11 11 11 12 13 14 15 16
30 30 31 31 31 31 30 29 29 29 28 27 25 23 22 20 19 19 18 18 17 16 15 14 13 12 12 12 11 11 10 10 10 11 11 12 12 13 13 14 15 16 17
32 32 33 34 33 33 32 31 31 30 30 29 27 26 24 22 21 20 20 19 19 18 16 15 14 14 13 13 13 12 11 11 11 12 12 13 13 14 14 15 16 17 19
35 35 35 35 35 35 34 33 33 32 32 30 30 28 26 25 23 22 22 21 20 19 18 17 16 15 15 14 14 13 13 13 12 13 13 14 14 15 15 16 17 18 20
37 37 37 37 37 37 36 35 35 34 33 32 32 31 29 27 25 24 23 23 22 21 20 18 17 17 16 15 15 15 14 14 14 14 14 15 15 16 16 17 18 19 20
39 39 39 39 39 39 39 38 37 36 35 34 34 33 31 29 28 26 25 24 23 22 21 20 19 18 17 17 16 16 15 15 15 15 15 16 16 17 17 18 19 21 21
42 42 41 41 41 41 41 40 39 38 37 36 35 34 33 32 30 29 27 26 25 24 23 22 21 19 19 18 17 17 17 16 16 16 16 17 17 18 19 20 21 22 23
45 44 44 44 43 43 43 42 41 40 39 38 37 36 35 34 32 31 29 28 27 25 24 23 22 21 20 19 19 18 18 17 17 17 17 18 18 19 20 21 22 23 24
47 47 46 46 46 45 44 44 44 42 41 41 39 38 37 36 34 33 31 29 28 27 26 24 23 22 21 21 20 19 19 18 19 19 19 19 20 20 21 22 23 24 26
49 49 48 48 48 47 46 46 46 45 43 43 41 40 38 37 36 34 32 31 30 29 27 26 25 24 23 22 21 20 20 20 20 20 20 20 21 21 23 24 25 26 27
52 51 51 50 49 49 49 48 47 47 46 44 43 42 40 39 38 36 34 33 32 30 29 28 26 25 24 24 23 22 21 21 21 21 21 21 22 23 24 25 26 28 29
54 54 54 52 52 51 50 49 49 49 48 46 45 44 42 41 39 37 36 34 33 32 31 29 28 27 26 25 24 23 22 22 21 22 22 23 24 25 26 27 28 28 29
56 56 56 55 54 53 52 52 50 50 49 48 47 46 44 42 40 38 37 36 35 33 32 31 29 28 27 26 25 24 24 23 23 23 23 24 25 26 27 28 29 29 30
58 58 58 57 56 55 55 54 53 51 50 49 48 47 45 43 42 40 38 38 36 35 34 32 31 30 28 27 27 26 25 25 24 24 25 25 26 27 28 29 30 31 32
57 59 59 59 58 57 56 55 55 54 52 51 50 48 46 45 43 41 40 39 37 36 35 33 32 31 30 29 28 27 27 26 26 26 26 27 27 28 29 30 31 32 33
55 57 58 59 59 58 57 57 56 55 54 53 51 49 47 46 44 43 42 41 39 37 36 34 33 32 31 30 29 29 28 27 27 27 28 28 29 29 30 31 32 33 35
54 55 56 58 58 58 58 58 58 56 55 54 53 51 49 47 46 45 43 41 40 38 37 35 34 33 32 31 30 30 29 29 29 29 29 29 30 30 31 32 33 34 36
51 53 54 56 56 57 58 58 59 58 56 54 53 52 50 48 47 46 44 42 41 39 38 36 35 34 33 32 31 31 30 30 30 30 30 30 31 31 32 33 34 35 37
48 50 53 54 55 56 57 59 59 59 57 55 54 53 50 49 48 47 45 43 42 40 38 37 36 35 34 33 32 32 31 31 31 31 31 32 32 32 33 34 35 36 38
45 47 50 53 53 55 57 58 59 58 58 56 54 53 51 49 48 47 46 44 43 41 39 38 37 36 34 33 33 33 32 32 32 32 32 32 33 33 34 35 36 38 39
43 44 48 51 52 54 56 57 59 58 57 56 54 53 52 49 48 47 46 45 44 42 40 39 38 36 36 35 34 34 33 33 33 33 33 33 34 34 35 36 37 39 40
41 42 46 50 52 53 55 57 58 59 57 55 53 53 52 51 49 48 47 46 45 43 42 40 39 38 37 36 36 35 35 34 34 34 34 34 34 35 36 37 39 40 41
39 40 44 47 50 53 54 56 57 58 56 54 54 54 52 51 50 49 48 47 46 45 43 42 40 39 38 37 36 36 36 35 35 35 35 35 35 36 37 38 40 41 42
38 39 42 45 48 51 53 55 56 56 57 55 54 53 51 51 49 47 47 46 46 45 44 42 41 40 39 38 37 37 37 36 36 36 36 36 37 37 38 39 40 41 42
Wind_Direction
241 239 239 238 237 236 235 234 233 234 234 234 235 238 241 242 243 243 243 243 245 249 252 256 265 273 280 284 289 294 298 302 310 316 319 321 324 326 328 329 330 332 333
244 240 239 239 238 237 236 235 235 235 235 236 236 238 241 242 244 244 243 243 245 249 253 258 263 270 277 282 286 291 294 298 304 310 314 317 319 321 323 325 326 329 330
247 244 242 240 239 238 237 236 235 235 236 237 237 238 240 243 244 245 244 244 245 249 253 257 262 267 272 279 284 287 289 294 299 304 308 312 314 316 318 320 323 327 329
247 246 244 242 240 239 238 237 236 236 236 237 238 239 240 242 244 245 244 244 245 248 251 256 262 265 270 276 280 284 286 291 296 299 303 308 310 312 315 318 322 325 327
248 246 245 244 242 240 238 238 237 237 236 237 238 239 241 242 244 245 244 244 245 247 251 255 261 265 269 273 277 281 283 286 293 297 300 304 308 310 313 316 319 322 325
248 246 245 244 243 241 240 239 238 238 237 237 238 240 242 243 243 244 244 244 245 247 250 255 260 263 266 271 275 278 280 283 291 296 299 302 306 309 311 314 317 320 322
249 247 245 244 243 242 241 240 239 238 238 238 238 240 242 243 243 243 244 244 245 246 249 254 259 262 265 268 272 276 279 282 288 295 298 301 304 306 309 311 315 318 320
248 247 245 243 243 242 241 241 240 239 239 239 239 240 242 242 242 243 244 244 244 246 249 253 258 261 263 266 270 274 278 281 286 293 297 299 301 304 307 310 313 316 318
248 246 245 244 242 241 241 240 240 240 239 239 240 240 241 241 241 242 244 244 243 245 248 252 257 259 262 265 269 273 277 281 285 291 296 297 300 303 306 309 312 315 317
248 246 244 244 243 241 240 240 240 240 240 240 240 240 240 241 241 242 243 243 243 245 248 252 255 257 260 264 268 273 277 280 283 289 294 296 299 302 304 308 310 313 315
247 245 244 243 242 241 240 239 239 239 240 240 240 240 240 240 241 242 243 243 243 245 248 251 253 256 259 263 268 273 277 279 282 287 291 295 298 301 304 307 309 312 314
247 245 243 242 241 241 240 239 238 238 239 240 240 240 240 240 241 241 242 242 243 245 247 250 253 255 258 262 267 272 276 279 282 286 289 293 298 300 303 307 309 311 313
247 245 243 241 240 239 239 238 238 238 238 239 239 239 240 240 241 241 241 242 243 245 247 250 253 255 258 261 265 270 275 278 281 285 288 292 296 300 303 306 308 310 312
246 244 242 241 239 238 238 237 237 237 237 237 238 238 239 240 240 242 241 241 243 245 247 249 253 255 257 260 265 270 274 278 280 284 288 291 295 298 302 305 308 310 312
245 243 241 240 239 237 236 236 235 235 235 236 238 237 237 239 240 241 241 241 242 245 247 249 252 255 257 260 264 268 273 277 280 284 288 292 295 298 301 304 307 310 311
243 242 240 239 238 236 235 234 234 234 234 235 236 236 237 238 239 240 240 241 242 244 246 249 252 255 257 260 263 267 272 276 279 283 287 291 295 297 300 303 307 309 311
242 240 239 237 236 235 234 232 232 232 232 234 235 235 235 237 238 239 240 241 242 243 246 248 251 254 257 260 263 267 271 275 279 282 287 291 294 297 300 303 306 308 310
241 239 237 235 234 232 231 230 230 230 230 232 234 234 234 235 237 238 239 240 241 243 245 248 250 253 257 260 262 266 270 274 279 282 287 291 294 296 299 303 306 308 309
239 237 234 233 232 230 228 228 228 228 229 231 232 233 233 234 236 238 238 239 241 242 244 247 250 253 256 259 262 266 269 274 279 283 287 291 294 296 299 302 306 308 309
237 234 232 231 229 228 227 226 226 226 227 228 230 232 233 233 235 236 237 238 240 242 244 246 250 252 256 259 262 265 269 273 278 283 287 290 293 296 299 302 305 308 310
234 231 230 229 227 226 225 224 224 225 225 226 229 230 231 233 233 235 237 237 239 242 243 246 250 252 255 259 262 265 269 273 278 283 287 290 293 296 298 301 304 307 310
234 231 229 227 225 224 223 223 223 223 224 226 228 228 229 232 233 234 236 237 238 241 244 246 249 252 255 258 262 266 269 273 277 282 286 290 293 296 298 301 304 307 309
232 231 228 226 224 223 222 222 221 221 223 226 228 229 230 232 233 232 234 236 238 241 244 247 249 252 255 258 262 266 269 272 276 281 285 289 293 296 298 301 305 307 309
231 230 227 225 224 222 221 221 220 221 223 226 228 229 231 232 232 233 234 236 238 241 244 247 249 252 255 258 262 266 269 272 276 280 284 288 292 295 298 300 303 306 308
230 230 227 225 224 223 222 221 220 220 222 225 228 229 229 231 231 233 234 236 238 240 243 246 249 252 255 258 262 265 268 272 276 280 284 288 291 294 296 299 302 306 308
229 229 228 225 224 223 222 221 221 221 222 225 227 228 228 231 232 234 235 237 238 240 242 245 248 251 254 258 261 265 268 272 276 279 283 287 291 293 296 299 303 306 308
Height
5846 5848 5849 5851 5853 5855 5856 5858 5860 5861 5863 5865 5866 5867 5868 5869 5869 5870 5871 5872 5872 5873 5873 5873 5874 5874 5873 5873 5872 5872 5871 5871 5870 5869 5868 5867 5866 5865 5864 5863 5862 5860 5858
5841 5844 5845 5847 5849 5851 5853 5855 5857 5858 5860 5862 5863 5864 5866 5867 5868 5868 5869 5870 5870 5871 5872 5872 5872 5872 5872 5872 5871 5871 5870 5870 5869 5868 5867 5866 5865 5864 5863 5861 5860 5858 5856
5837 5839 5841 5843 5845 5847 5849 5851 5853 5855 5857 5859 5860 5862 5863 5864 5865 5866 5867 5868 5869 5869 5870 5870 5871 5871 5871 5870 5870 5869 5869 5868 5868 5867 5866 5865 5864 5863 5861 5860 5858 5856 5854
5831 5834 5836 5838 5840 5842 5845 5847 5849 5851 5853 5855 5857 5858 5860 5861 5863 5864 5865 5866 5867 5867 5868 5869 5869 5869 5869 5868 5868 5868 5867 5867 5866 5865 5864 5863 5862 5861 5859 5858 5856 5854 5852
5825 5829 5831 5833 5835 5837 5840 5842 5845 5847 5849 5851 5853 5855 5856 5858 5859 5861 5862 5863 5864 5865 5866 5866 5867 5867 5867 5867 5866 5866 5865 5865 5864 5863 5862 5861 5860 5859 5857 5855 5854 5852 5850
5819 5822 5825 5827 5829 5832 5835 5837 5840 5842 5844 5847 5849 5851 5853 5854 5856 5857 5859 5860 5861 5863 5863 5864 5865 5865 5865 5864 5864 5864 5863 5863 5862 5861 5860 5859 5858 5856 5855 5853 5851 5849 5847
5811 5815 5818 5821 5823 5826 5829 5832 5834 5837 5839 5842 5844 5847 5848 5850 5852 5854 5855 5857 5858 5860 5860 5861 5862 5862 5862 5862 5862 5861 5861 5861 5860 5859 5858 5857 5855 5854 5852 5850 5848 5846 5844
5804 5807 5810 5814 5817 5820 5823 5826 5829 5831 5834 5837 5839 5842 5844 5846 5848 5850 5851 5853 5855 5856 5857 5858 5859 5859 5859 5859 5859 5859 5859 5858 5858 5857 5855 5854 5853 5851 5849 5847 5845 5843 5841
5795 5799 5802 5806 5809 5813 5816 5819 5822 5825 5828 5831 5834 5836 5839 5841 5843 5845 5847 5849 5851 5852 5854 5855 5855 5856 5856 5856 5856 5856 5856 5855 5855 5854 5853 5851 5850 5848 5846 5844 5842 5840 5837
5786 5790 5794 5798 5801 5805 5809 5812 5816 5819 5822 5825 5828 5831 5833 5836 5838 5841 5843 5845 5847 5849 5850 5851 5852 5853 5853 5853 5853 5853 5853 5852 5852 5851 5850 5848 5847 5845 5843 5841 5839 5836 5834
5777 5780 5785 5789 5793 5796 5801 5804 5808 5812 5815 5818 5821 5824 5828 5830 5833 5836 5838 5840 5843 5844 5846 5847 5848 5849 5849 5850 5850 5850 5849 5849 5848 5848 5846 5845 5843 5841 5839 5837 5835 5833 5830
5765 5770 5775 5779 5783 5788 5792 5796 5800 5804 5808 5811 5815 5818 5821 5825 5828 5830 5833 5836 5838 5840 5842 5843 5844 5845 5846 5846 5846 5846 5846 5846 5845 5844 5843 5841 5840 5838 5836 5834 5831 5829 5826
5753 5758 5763 5768 5773 5778 5782 5787 5792 5796 5800 5804 5808 5811 5815 5818 5822 5825 5828 5830 5833 5835 5837 5839 5840 5841 5842 5842 5842 5842 5842 5842 5841 5840 5839 5838 5836 5834 5832 5830 5827 5824 5821
5739 5745 5751 5756 5762 5767 5773 5778 5783 5787 5792 5796 5800 5804 5808 5812 5815 5819 5822 5825 5828 5830 5832 5834 5835 5837 5837 5838 5838 5838 5838 5838 5837 5836 5835 5834 5832 5830 5828 5825 5823 5820 5817
5725 5731 5738 5744 5750 5756 5762 5768 5773 5777 5783 5788 5792 5796 5801 5805 5809 5813 5816 5819 5822 5825 5827 5829 5830 5832 5833 5833 5834 5834 5834 5834 5833 5832 5831 5829 5828 5826 5823 5821 5818 5815 5812
5710 5717 5723 5730 5737 5744 5750 5757 5762 5768 5774 5779 5784 5788 5793 5797 5802 5806 5810 5813 5816 5819 5821 5823 5825 5827 5828 5828 5829 5829 5829 5829 5829 5828 5826 5825 5823 5821 5818 5816 5813 5810 5806
5695 5701 5708 5716 5723 5731 5738 5745 5751 5758 5764 5770 5774 5780 5785 5789 5794 5799 5803 5806 5809 5812 5815 5817 5819 5821 5823 5823 5824 5825 5824 5824 5824 5823 5822 5820 5818 5816 5813 5811 5808 5804 5801
5679 5686 5693 5700 5708 5717 5725 5732 5740 5747 5754 5760 5765 5771 5777 5782 5786 5791 5795 5799 5803 5806 5809 5811 5814 5815 5817 5818 5819 5819 5819 5819 5819 5818 5817 5815 5813 5811 5808 5805 5802 5799 5795
5664 5671 5678 5685 5694 5703 5711 5720 5728 5736 5743 5750 5756 5762 5768 5773 5778 5783 5787 5792 5796 5799 5802 5805 5807 5809 5811 5812 5813 5814 5814 5814 5813 5812 5811 5810 5808 5805 5803 5800 5796 5793 5789
5650 5657 5665 5672 5680 5689 5698 5707 5716 5724 5732 5739 5745 5752 5759 5765 5770 5774 5779 5784 5788 5792 5795 5798 5801 5803 5805 5806 5807 5808 5808 5808 5807 5807 5806 5804 5802 5799 5797 5794 5791 5787 5783
5638 5645 5652 5659 5668 5677 5686 5695 5704 5714 5722 5730 5737 5743 5750 5756 5761 5767 5772 5776 5781 5785 5788 5791 5794 5796 5798 5800 5801 5802 5802 5802 5802 5801 5800 5798 5796 5794 5791 5788 5784 5781 5776
5627 5634 5640 5647 5656 5664 5674 5684 5694 5703 5712 5719 5726 5733 5740 5746 5752 5758 5763 5768 5773 5777 5781 5784 5787 5789 5792 5793 5795 5795 5796 5796 5795 5795 5793 5792 5790 5787 5784 5781 5778 5774 5770
5618 5624 5630 5638 5645 5654 5663 5673 5683 5692 5701 5709 5716 5724 5731 5737 5743 5750 5755 5760 5765 5770 5774 5777 5780 5782 5785 5786 5788 5789 5789 5790 5789 5788 5787 5785 5783 5781 5778 5775 5771 5767 5763
5611 5615 5622 5629 5637 5645 5653 5663 5672 5682 5691 5700 5708 5715 5722 5729 5735 5741 5747 5752 5757 5762 5766 5769 5772 5775 5777 5779 5780 5782 5782 5783 5783 5782 5781 5779 5777 5774 5771 5768 5764 5760 5756
5603 5608 5614 5620 5628 5636 5644 5653 5663 5672 5682 5690 5698 5706 5712 5718 5725 5732 5738 5743 5749 5753 5758 5761 5765 5768 5770 5772 5773 5774 5775 5775 5775 5775 5774 5772 5770 5767 5764 5761 5757 5753 5749
5596 5601 5607 5613 5620 5628 5636 5645 5654 5663 5672 5680 5688 5696 5702 5709 5716 5723 5729 5735 5740 5745 5749 5753 5757 5760 5762 5764 5766 5767 5767 5768 5768 5767 5766 5765 5763 5760 5757 5753 5750 5746 5741